Time,TemperatureF,DewpointF,PressureIn,WindDirection,WindDirectionDegrees,WindSpeedMPH,WindSpeedGustMPH,Humidity,HourlyPrecipIn,Conditions,Clouds,dailyrainin,SoftwareType,DateUTC
2013-02-14 00:02:00,64.0,57.0,29.99,WSW,258,0.0,0.0,77,0.01,,,0.14,,2013-02-14 05:02:00,
2013-02-14 00:11:00,64.0,57.0,29.99,WSW,258,0.0,0.0,77,0.01,,,0.14,,2013-02-14 05:11:00,
2013-02-14 00:22:00,64.0,59.0,29.97,WSW,258,0.0,0.0,83,0.02,,,0.15,,2013-02-14 05:22:00,
2013-02-14 00:32:00,64.0,59.0,29.98,WSW,258,0.0,0.0,85,0.02,,,0.15,,2013-02-14 05:32:00,
2013-02-14 00:42:00,64.0,59.0,29.98,WSW,258,0.0,0.0,85,0.02,,,0.15,,2013-02-14 05:42:00,
2013-02-14 00:52:00,63.0,59.0,29.97,WSW,258,0.0,0.0,88,0.01,,,0.15,,2013-02-14 05:52:00,
2013-02-14 01:02:00,63.0,59.0,29.97,WSW,258,0.0,0.0,88,0.01,,,0.15,,2013-02-14 06:02:00,
2013-02-14 01:11:00,64.0,61.0,29.96,WSW,258,0.0,0.0,90,0.00,,,0.15,,2013-02-14 06:11:00,
2013-02-14 01:21:00,64.0,61.0,29.96,WSW,258,0.0,0.0,90,0.00,,,0.15,,2013-02-14 06:21:00,
2013-02-14 01:32:00,64.0,60.0,29.96,WSW,258,0.0,0.0,88,0.00,,,0.15,,2013-02-14 06:32:00,
2013-02-14 01:42:00,64.0,60.0,29.96,WSW,258,0.0,0.0,88,0.00,,,0.15,,2013-02-14 06:42:00,
2013-02-14 01:52:00,64.0,60.0,29.96,WSW,258,0.0,0.0,88,0.00,,,0.15,,2013-02-14 06:52:00,
2013-02-14 02:01:00,64.0,60.0,29.96,WSW,258,0.0,0.0,86,0.00,,,0.15,,2013-02-14 07:01:00,
2013-02-14 02:11:00,64.0,60.0,29.96,WSW,258,0.0,0.0,86,0.00,,,0.15,,2013-02-14 07:11:00,
2013-02-14 02:21:00,64.0,60.0,29.96,WSW,258,0.0,0.0,86,0.00,,,0.15,,2013-02-14 07:21:00,
2013-02-14 02:32:00,64.0,60.0,29.93,WSW,258,0.0,0.0,86,0.00,,,0.15,,2013-02-14 07:32:00,
2013-02-14 02:42:00,64.0,60.0,29.93,WSW,258,0.0,0.0,86,0.00,,,0.15,,2013-02-14 07:42:00,
2013-02-14 02:52:00,64.0,60.0,29.94,WSW,258,0.0,0.0,86,0.00,,,0.15,,2013-02-14 07:52:00,
2013-02-14 03:01:00,64.0,60.0,29.94,WSW,258,0.0,0.0,86,0.00,,,0.15,,2013-02-14 08:01:00,
2013-02-14 03:11:00,64.0,60.0,29.94,WSW,258,0.0,0.0,86,0.00,,,0.15,,2013-02-14 08:11:00,
2013-02-14 03:22:00,64.0,60.0,29.94,WSW,258,0.0,0.0,86,0.00,,,0.15,,2013-02-14 08:22:00,
2013-02-14 03:32:00,64.0,60.0,29.93,WSW,258,0.0,0.0,86,0.00,,,0.15,,2013-02-14 08:32:00,
2013-02-14 03:43:00,64.0,60.0,29.93,WSW,258,0.0,0.0,86,0.00,,,0.15,,2013-02-14 08:43:00,
2013-02-14 03:52:00,64.0,60.0,29.93,WSW,258,0.0,0.0,86,0.00,,,0.15,,2013-02-14 08:52:00,
2013-02-14 04:02:00,64.0,60.0,29.93,WSW,258,0.0,0.0,86,0.00,,,0.15,,2013-02-14 09:02:00,
2013-02-14 04:11:00,64.0,60.0,29.93,WSW,258,0.0,0.0,86,0.00,,,0.15,,2013-02-14 09:11:00,
2013-02-14 04:21:00,64.0,60.0,29.93,WSW,258,0.0,0.0,88,0.00,,,0.15,,2013-02-14 09:21:00,
2013-02-14 04:32:00,64.0,60.0,29.93,WSW,258,0.0,0.0,88,0.00,,,0.15,,2013-02-14 09:32:00,
2013-02-14 04:42:00,64.0,60.0,29.93,WSW,258,0.0,0.0,88,0.00,,,0.15,,2013-02-14 09:42:00,
2013-02-14 04:52:00,64.0,60.0,29.93,WSW,258,0.0,0.0,88,0.00,,,0.15,,2013-02-14 09:52:00,
2013-02-14 05:02:00,64.0,60.0,29.93,WSW,258,0.0,0.0,88,0.00,,,0.15,,2013-02-14 10:02:00,
2013-02-14 05:11:00,65.0,62.0,29.91,WSW,258,0.0,0.0,90,0.00,,,0.15,,2013-02-14 10:11:00,
2013-02-14 05:22:00,65.0,62.0,29.91,WSW,258,0.0,0.0,90,0.00,,,0.15,,2013-02-14 10:22:00,
2013-02-14 05:32:00,65.0,62.0,29.91,WSW,258,0.0,0.0,90,0.00,,,0.15,,2013-02-14 10:32:00,
2013-02-14 05:42:00,65.0,62.0,29.91,WSW,258,0.0,0.0,90,0.00,,,0.15,,2013-02-14 10:42:00,
2013-02-14 05:52:00,65.0,62.0,29.91,WSW,258,0.0,0.0,90,0.00,,,0.15,,2013-02-14 10:52:00,
2013-02-14 06:02:00,65.0,62.0,29.91,WSW,258,0.0,0.0,90,0.00,,,0.15,,2013-02-14 11:02:00,
2013-02-14 06:22:00,64.0,61.0,29.93,WSW,258,0.0,0.0,89,0.00,,,0.15,,2013-02-14 11:22:00,
2013-02-14 06:32:00,64.0,61.0,29.93,WSW,258,0.0,0.0,89,0.00,,,0.15,,2013-02-14 11:32:00,
2013-02-14 06:42:00,64.0,61.0,29.93,WSW,258,0.0,0.0,89,0.00,,,0.15,,2013-02-14 11:42:00,
2013-02-14 06:52:00,64.0,61.0,29.93,WSW,258,0.0,0.0,89,0.00,,,0.15,,2013-02-14 11:52:00,
2013-02-14 07:02:00,64.0,62.0,29.96,WSW,258,0.0,0.0,92,0.00,,,0.15,,2013-02-14 12:02:00,
2013-02-14 07:12:00,64.0,62.0,29.96,WSW,258,0.0,0.0,92,0.00,,,0.15,,2013-02-14 12:12:00,
2013-02-14 07:22:00,64.0,62.0,29.96,WSW,258,0.0,0.0,92,0.00,,,0.15,,2013-02-14 12:22:00,
2013-02-14 07:32:00,64.0,62.0,29.96,WSW,258,0.0,0.0,92,0.00,,,0.15,,2013-02-14 12:32:00,
2013-02-14 07:42:00,64.0,62.0,29.96,WSW,258,0.0,0.0,92,0.00,,,0.15,,2013-02-14 12:42:00,
2013-02-14 07:53:00,64.0,62.0,29.97,WSW,258,0.0,0.0,93,0.00,,,0.15,,2013-02-14 12:53:00,
2013-02-14 08:02:00,64.0,62.0,29.98,WSW,258,0.0,0.0,93,0.00,,,0.15,,2013-02-14 13:02:00,
2013-02-14 08:11:00,64.0,62.0,29.98,WSW,258,0.0,0.0,93,0.00,,,0.15,,2013-02-14 13:11:00,
2013-02-14 08:21:00,64.0,62.0,29.98,WSW,258,0.0,0.0,93,0.00,,,0.15,,2013-02-14 13:21:00,
2013-02-14 08:32:00,65.0,63.0,29.98,WSW,258,0.0,0.0,94,0.00,,,0.15,,2013-02-14 13:32:00,
2013-02-14 08:42:00,65.0,63.0,29.98,WSW,258,0.0,0.0,94,0.00,,,0.15,,2013-02-14 13:42:00,
2013-02-14 08:52:00,65.0,63.0,29.98,WSW,258,0.0,0.0,94,0.00,,,0.15,,2013-02-14 13:52:00,
2013-02-14 09:01:00,65.0,63.0,29.98,WSW,258,0.0,0.0,94,0.00,,,0.15,,2013-02-14 14:01:00,
2013-02-14 09:11:00,65.0,63.0,29.98,WSW,258,0.0,0.0,94,0.00,,,0.15,,2013-02-14 14:11:00,
2013-02-14 09:22:00,65.0,61.0,29.99,WSW,258,0.0,0.0,88,0.00,,,0.15,,2013-02-14 14:22:00,
2013-02-14 09:32:00,65.0,61.0,29.99,WSW,258,0.0,0.0,88,0.00,,,0.15,,2013-02-14 14:32:00,
2013-02-14 09:42:00,65.0,61.0,29.99,WSW,258,0.0,0.0,88,0.00,,,0.15,,2013-02-14 14:42:00,
2013-02-14 09:52:00,66.0,61.0,30.01,WSW,258,0.0,0.0,83,0.00,,,0.15,,2013-02-14 14:52:00,
2013-02-14 10:02:00,66.0,61.0,30.02,WSW,258,0.0,0.0,83,0.00,,,0.15,,2013-02-14 15:02:00,
2013-02-14 10:11:00,66.0,61.0,30.02,WSW,258,0.0,0.0,83,0.00,,,0.15,,2013-02-14 15:11:00,
2013-02-14 10:21:00,66.0,61.0,30.02,WSW,258,0.0,0.0,83,0.00,,,0.15,,2013-02-14 15:21:00,
2013-02-14 10:32:00,66.0,62.0,30.02,NNW,330,1.0,7.0,86,0.00,,,0.15,,2013-02-14 15:32:00,
2013-02-14 10:42:00,66.0,62.0,30.02,NNW,330,1.0,7.0,86,0.00,,,0.15,,2013-02-14 15:42:00,
2013-02-14 10:52:00,65.0,60.0,30.02,North,0,4.0,10.0,84,0.00,,,0.15,,2013-02-14 15:52:00,
2013-02-14 11:02:00,65.0,61.0,30.02,NW,320,4.0,12.0,87,0.00,,,0.15,,2013-02-14 16:02:00,
2013-02-14 11:11:00,65.0,61.0,30.02,NW,320,4.0,12.0,87,0.00,,,0.15,,2013-02-14 16:11:00,
2013-02-14 11:21:00,65.0,61.0,30.02,NW,320,4.0,12.0,87,0.00,,,0.15,,2013-02-14 16:21:00,
2013-02-14 11:32:00,65.0,61.0,30.02,NW,320,4.0,12.0,87,0.00,,,0.15,,2013-02-14 16:32:00,
2013-02-14 11:42:00,65.0,61.0,30.02,NW,320,4.0,12.0,87,0.00,,,0.15,,2013-02-14 16:42:00,
2013-02-14 12:01:00,63.0,62.0,30.02,NNW,340,0.0,7.0,95,0.16,,,0.31,,2013-02-14 17:01:00,
2013-02-14 12:11:00,63.0,62.0,30.02,NNW,340,0.0,7.0,95,0.16,,,0.31,,2013-02-14 17:11:00,
2013-02-14 12:21:00,63.0,62.0,30.02,NNW,340,0.0,7.0,95,0.16,,,0.31,,2013-02-14 17:21:00,
2013-02-14 12:32:00,63.0,62.0,30.03,NNW,328,1.0,8.0,96,0.23,,,0.39,,2013-02-14 17:32:00,
2013-02-14 12:42:00,63.0,62.0,30.03,NNW,328,1.0,8.0,96,0.23,,,0.39,,2013-02-14 17:42:00,
2013-02-14 12:52:00,63.0,62.0,30.03,WNW,298,0.0,5.0,97,0.25,,,0.49,,2013-02-14 17:52:00,
2013-02-14 13:02:00,63.0,62.0,30.03,WNW,298,0.0,5.0,97,0.25,,,0.49,,2013-02-14 18:02:00,
2013-02-14 13:11:00,63.0,62.0,30.03,WNW,298,0.0,5.0,97,0.25,,,0.49,,2013-02-14 18:11:00,
2013-02-14 13:23:00,63.0,62.0,29.99,WNW,298,0.0,0.0,97,0.18,,,0.54,,2013-02-14 18:23:00,
2013-02-14 13:32:00,63.0,62.0,29.99,WNW,298,0.0,0.0,96,0.16,,,0.55,,2013-02-14 18:32:00,
2013-02-14 13:42:00,63.0,62.0,29.99,WNW,298,0.0,0.0,96,0.16,,,0.55,,2013-02-14 18:42:00,
2013-02-14 13:52:00,63.0,62.0,29.99,WNW,298,0.0,0.0,96,0.16,,,0.55,,2013-02-14 18:52:00,
2013-02-14 14:02:00,63.0,62.0,29.99,WNW,298,0.0,0.0,96,0.16,,,0.55,,2013-02-14 19:02:00,
2013-02-14 14:11:00,63.0,62.0,29.99,WNW,298,0.0,0.0,96,0.16,,,0.55,,2013-02-14 19:11:00,
2013-02-14 14:32:00,65.0,64.0,29.96,WNW,298,0.0,0.0,95,0.02,,,0.57,,2013-02-14 19:32:00,
2013-02-14 14:42:00,65.0,64.0,29.96,WNW,298,0.0,0.0,95,0.02,,,0.57,,2013-02-14 19:42:00,
2013-02-14 14:52:00,65.0,64.0,29.96,WNW,298,0.0,0.0,95,0.02,,,0.57,,2013-02-14 19:52:00,
2013-02-14 15:01:00,64.0,63.0,29.96,WNW,298,0.0,0.0,95,0.01,,,0.57,,2013-02-14 20:01:00,
2013-02-14 15:11:00,64.0,63.0,29.96,WNW,298,0.0,0.0,95,0.01,,,0.57,,2013-02-14 20:11:00,
2013-02-14 15:21:00,64.0,63.0,29.96,WNW,298,0.0,0.0,95,0.01,,,0.57,,2013-02-14 20:21:00,
2013-02-14 15:32:00,64.0,63.0,29.97,WNW,298,0.0,0.0,95,0.01,,,0.58,,2013-02-14 20:32:00,
2013-02-14 15:42:00,64.0,63.0,29.97,WNW,298,0.0,0.0,95,0.01,,,0.58,,2013-02-14 20:42:00,
2013-02-14 15:52:00,64.0,63.0,29.97,WNW,298,0.0,0.0,95,0.01,,,0.58,,2013-02-14 20:52:00,
2013-02-14 16:02:00,64.0,63.0,29.95,WNW,298,0.0,0.0,96,0.02,,,0.59,,2013-02-14 21:02:00,
2013-02-14 16:11:00,64.0,63.0,29.95,WNW,298,0.0,0.0,96,0.02,,,0.59,,2013-02-14 21:11:00,
2013-02-14 16:22:00,64.0,63.0,29.95,WNW,298,0.0,0.0,96,0.02,,,0.59,,2013-02-14 21:22:00,
2013-02-14 16:32:00,64.0,63.0,29.96,WNW,298,0.0,0.0,96,0.02,,,0.60,,2013-02-14 21:32:00,
2013-02-14 16:42:00,64.0,63.0,29.96,WNW,298,0.0,0.0,96,0.02,,,0.60,,2013-02-14 21:42:00,
2013-02-14 16:52:00,64.0,63.0,29.96,WNW,298,0.0,0.0,96,0.02,,,0.60,,2013-02-14 21:52:00,
2013-02-14 17:02:00,64.0,63.0,29.96,WNW,298,0.0,0.0,96,0.02,,,0.60,,2013-02-14 22:02:00,
2013-02-14 17:11:00,64.0,63.0,29.96,WNW,298,0.0,0.0,96,0.02,,,0.60,,2013-02-14 22:11:00,
2013-02-14 17:21:00,64.0,63.0,29.97,WNW,298,0.0,0.0,96,0.02,,,0.62,,2013-02-14 22:21:00,
2013-02-14 17:32:00,64.0,63.0,29.97,WNW,298,0.0,0.0,96,0.02,,,0.62,,2013-02-14 22:32:00,
2013-02-14 17:42:00,64.0,63.0,29.97,WNW,298,0.0,0.0,96,0.02,,,0.62,,2013-02-14 22:42:00,
2013-02-14 17:52:00,63.0,62.0,29.97,WNW,298,0.0,0.0,96,0.03,,,0.63,,2013-02-14 22:52:00,
2013-02-14 18:01:00,63.0,62.0,29.97,WNW,298,0.0,0.0,96,0.03,,,0.64,,2013-02-14 23:01:00,
2013-02-14 18:11:00,63.0,62.0,29.97,WNW,298,0.0,0.0,96,0.03,,,0.64,,2013-02-14 23:11:00,
2013-02-14 18:21:00,62.0,61.0,29.98,WNW,298,0.0,0.0,96,0.02,,,0.64,,2013-02-14 23:21:00,
2013-02-14 18:32:00,62.0,61.0,29.99,WNW,298,0.0,0.0,97,0.02,,,0.64,,2013-02-14 23:32:00,
2013-02-14 18:42:00,62.0,61.0,29.99,WNW,298,0.0,0.0,97,0.02,,,0.64,,2013-02-14 23:42:00,
2013-02-14 18:52:00,62.0,61.0,30.01,NW,306,1.0,8.0,96,0.01,,,0.64,,2013-02-14 23:52:00,
2013-02-14 19:01:00,61.0,60.0,30.01,NW,306,0.0,0.0,97,0.00,,,0.64,,2013-02-15 00:01:00,
2013-02-14 19:11:00,61.0,60.0,30.01,NW,306,0.0,0.0,97,0.00,,,0.64,,2013-02-15 00:11:00,
2013-02-14 19:22:00,61.0,60.0,30.01,NW,308,0.0,6.0,97,0.00,,,0.64,,2013-02-15 00:22:00,
2013-02-14 19:32:00,61.0,60.0,30.00,NW,308,0.0,0.0,97,0.00,,,0.57,,2013-02-15 00:32:00,
2013-02-14 19:42:00,61.0,60.0,30.00,NW,308,0.0,0.0,97,0.00,,,0.57,,2013-02-15 00:42:00,
2013-02-14 19:52:00,61.0,60.0,30.00,NW,308,0.0,0.0,97,0.00,,,0.57,,2013-02-15 00:52:00,
2013-02-14 20:02:00,61.0,60.0,30.00,NW,308,0.0,0.0,97,0.00,,,0.57,,2013-02-15 01:02:00,
2013-02-14 20:11:00,61.0,60.0,30.00,NW,308,0.0,0.0,97,0.00,,,0.57,,2013-02-15 01:11:00,
2013-02-14 20:21:00,61.0,60.0,29.97,NW,308,0.0,0.0,97,0.00,,,0.51,,2013-02-15 01:21:00,
2013-02-14 20:32:00,61.0,60.0,29.97,NW,308,0.0,0.0,97,0.00,,,0.51,,2013-02-15 01:32:00,
2013-02-14 20:42:00,61.0,60.0,29.97,NW,308,0.0,0.0,97,0.00,,,0.51,,2013-02-15 01:42:00,
2013-02-14 20:52:00,61.0,60.0,29.97,NW,308,0.0,0.0,97,0.00,,,0.51,,2013-02-15 01:52:00,
2013-02-14 21:01:00,61.0,60.0,30.01,NW,308,0.0,0.0,97,0.00,,,0.51,,2013-02-15 02:01:00,
2013-02-14 21:11:00,61.0,60.0,30.01,NW,308,0.0,0.0,97,0.00,,,0.51,,2013-02-15 02:11:00,
2013-02-14 21:21:00,61.0,60.0,30.01,NW,308,0.0,0.0,97,0.00,,,0.51,,2013-02-15 02:21:00,
2013-02-14 21:32:00,61.0,60.0,30.01,NW,308,0.0,0.0,97,0.00,,,0.51,,2013-02-15 02:32:00,
2013-02-14 21:42:00,61.0,60.0,30.01,NW,308,0.0,0.0,97,0.00,,,0.51,,2013-02-15 02:42:00,
2013-02-14 22:02:00,62.0,62.0,29.99,NW,308,0.0,0.0,100,0.00,,,0.51,,2013-02-15 03:02:00,
2013-02-14 22:11:00,62.0,62.0,29.99,NW,308,0.0,0.0,100,0.00,,,0.51,,2013-02-15 03:11:00,
2013-02-14 22:22:00,62.0,62.0,29.99,NW,308,0.0,0.0,100,0.00,,,0.51,,2013-02-15 03:22:00,
2013-02-14 22:32:00,62.0,62.0,29.99,NW,308,0.0,0.0,100,0.00,,,0.51,,2013-02-15 03:32:00,
2013-02-14 22:52:00,62.0,62.0,30.02,NW,308,0.0,0.0,100,0.06,,,0.57,,2013-02-15 03:52:00,
2013-02-14 23:02:00,62.0,62.0,30.01,NW,308,0.0,0.0,100,0.08,,,0.60,,2013-02-15 04:02:00,
2013-02-14 23:11:00,62.0,62.0,30.01,NW,308,0.0,0.0,100,0.08,,,0.60,,2013-02-15 04:11:00,
2013-02-14 23:21:00,62.0,62.0,30.01,NW,308,0.0,0.0,100,0.08,,,0.60,,2013-02-15 04:21:00,
2013-02-14 23:32:00,62.0,62.0,30.01,NW,308,0.0,0.0,100,0.08,,,0.60,,2013-02-15 04:32:00,
2013-02-14 23:42:00,62.0,62.0,30.01,NW,308,0.0,0.0,100,0.08,,,0.60,,2013-02-15 04:42:00,